Simultaneous Nadir Overpasses (SNOs) Predictions

Prediction of SNOs between GOES-15 and LANDSAT-8 Satellite Orbit:

Table of predicted SNOs for the next 14.0 days since TLE Epoch: 5/28/2022
Index Date Time (GOES-15) GOES-15 Lat,Lon LANDSAT-8 Lat,Lon Distance(km) Time Diff (sec)
1 05/29/2022 18:42:44 -0.20,-127.97 -0.20,-127.98 1.24 80
2 05/31/2022 18:30:36 -0.20,-128.03 -0.85,-125.03 341.35 80
3 06/01/2022 06:54:39 0.19,-128.02 -0.30,-130.21 249.92 80
4 06/03/2022 06:39:50 0.20,-128.07 0.37,-127.27 91.45 80
5 06/03/2022 19:03:46 -0.19,-128.11 0.73,-132.43 490.65 80
6 06/05/2022 06:27:41 0.21,-128.13 1.04,-124.33 432.57 80
7 06/05/2022 18:51:36 -0.20,-128.16 0.11,-129.47 149.56 80
8 06/07/2022 18:36:47 -0.21,-128.21 -0.57,-126.53 191.43 80
9 06/08/2022 07:00:51 0.19,-128.20 -0.56,-131.71 399.49 80
10 06/10/2022 06:48:41 0.19,-128.24 0.07,-128.76 58.97 80
